Location: Cisewo
(53.3833°N, 14.9000°E)
Time: 11:10:23
(UTC+00:00)

S3M - Pass Details

Date: 18 April 2021
Orbit: 949 x 1004 km, 83.0° (Epoch: 14 May)

Event Time Altitude Azimuth Distance (km) Brightness Sun altitude
Exits shadow 22:08:54 51° 192° (SSW) 1,246 4.1 -24.6°
Maximum altitude 22:10:42 88° 281° (W) 1,013 4.0 -24.6°
Drops below altitude 10° 22:17:09 10° 10° (N) 2,792 7.3 -24.8°
Sets 22:19:42 0° 11° (NNE) 3,743 8.2 -24.9°
